Location: Newark
(43.7333°N, 7.4000°E)
Time: 23:30:16
(UTC+00:00)

Envisat - Pass Details

Date: 26 September 2020
Orbit: 764 x 766 km, 98.1° (Epoch: 29 October)

Event Time Altitude Azimuth Distance (km) Brightness Sun altitude
Rises 04:31:51 0° 27° (NNE) 3,238 6.8 -10.0°
Reaches altitude 10° 04:34:42 10° 43° (NE) 2,307 6.3 -9.4°
Maximum altitude 04:38:32 21° 92° (E) 1,655 5.9 -8.8°
Drops below altitude 10° 04:42:21 10° 141° (SE) 2,293 5.9 -8.1°
Sets 04:45:10 0° 157° (SSE) 3,213 6.5 -7.6°
